[[{"header":{"parameterUnit":"m.s-1","parameterCategory":1,"la1":30.2991,"la2":30.254,"lo1":-89.0895,"lo2":-89.0444,"dy":0.0017,"dx":0.0017,"nx":28,"ny":28,"refTime":"2024-03-22T03:00:00:Z","depth":0,"parameterNumber":2,"parameterNumberName":"U-component_of_WINDS"},"data":[0,0,0,0,0,0,0,0,0,0,0,0,0,0,0,0,0,0,0,0,0,0,0,0,0,0,0,0,0,0,0,0,0,0,0,0,0,0,0,0,0,0,0,0,0,0,0,0,0,0,0,0,0,0,0,0,0,0,-1.9413,-1.9414,0,-1.9474,-1.9475,-1.9475,-1.9449,-1.9448,-1.9446,-1.9445,-1.9517,-1.952,-1.9524,0,0,0,0,0,0,0,0,0,0,0,0,0,-1.9285,-1.9288,-1.9413,-1.9414,-1.9415,-1.9474,-1.9475,-1.9476,-1.9449,-1.9448,-1.9446,-1.9444,-1.9516,-1.952,-1.9524,0,0,0,0,0,0,0,0,0,0,0,0,0,-1.9343,-1.9288,-1.9413,-1.9409,-1.9409,-1.9474,-1.9475,-1.9476,-1.945,-1.9448,-1.9445,-1.9443,-1.9515,-1.952,-1.9525,-1.9601,0,0,-1.954,-1.9542,0,0,0,0,0,0,0,0,-1.934,-1.9348,-1.9409,-1.9409,-1.9409,-1.9451,-1.9456,-1.9518,-1.945,-1.9435,-1.9445,-1.9442,-1.9498,-1.9504,-1.9521,-1.9604,-1.9607,-1.954,-1.9543,-1.9545,-1.9547,0,0,0,0,0,0,0,-1.9336,-1.9345,-1.9438,-1.941,-1.941,-1.9407,-1.9413,-1.9468,-1.9479,-1.9436,-1.9434,-1.9441,-1.9498,-1.9516,-1.9522,-1.9608,-1.954,-1.9545,-1.9548,-1.955,-1.9758,-1.9761,0,0,0,0,0,0,-1.933,-1.9342,-1.9436,-1.9439,-1.9368,-1.9411,-1.9417,-1.944,-1.9478,-1.9481,-1.9443,-1.9439,-1.9509,-1.9516,-1.9525,-1.9616,-1.9545,-1.955,-1.9553,-1.9756,-1.9759,-1.9761,0,0,0,0,0,0,-1.9328,-1.9339,-1.9433,-1.939,-1.9402,-1.9415,-1.9442,-1.9443,-1.9461,-1.9483,-1.9486,-1.9459,-1.9507,-1.9518,-1.9581,-1.9618,-1.9552,-1.9557,-1.9753,-1.9757,-1.976,-1.98,0,0,0,0,0,0,-1.9324,-1.9338,-1.9365,-1.9391,-1.9404,-1.9486,-1.9444,-1.9446,-1.9468,-1.9465,-1.9499,-1.9502,-1.9506,-1.9574,-1.9586,-1.9624,-1.9561,-1.9749,-1.9754,-1.9759,-1.9795,-1.9804,-1.9812,0,0,0,0,0,-1.932,-1.9376,-1.9366,-1.9378,-1.9437,-1.9488,-1.9496,-1.9496,-1.9471,-1.95,-1.9514,-1.9501,-1.9612,-1.9581,-1.9594,-1.9634,-1.9747,-1.9753,-1.9758,-1.9791,-1.9802,-1.9812,0,0,0,0,0,0,-1.9357,-1.9379,-1.9369,-1.9434,-1.9459,-1.9483,-1.9519,-1.9508,-1.9543,-1.9539,-1.9541,-1.9549,-1.9615,-1.9631,-1.9596,-1.971,-1.9676,-1.9685,-1.9697,-1.9708,-1.9716,-1.9711,-1.9565,0,0,0,0,0,-1.9372,-1.9408,-1.9427,-1.9483,-1.9496,-1.9505,-1.9528,-1.9525,-1.9553,-1.9564,-1.9583,-1.9613,-1.9655,-1.9682,-1.9722,-1.9798,-1.9806,-1.9832,-1.9841,-1.9847,-1.9855,-1.9897,-1.9909,-1.978,-1.978,-1.978,0,0,-1.9406,-1.9422,-1.9445,-1.9491,-1.951,-1.955,-1.9514,-1.9559,-1.9589,-1.9572,-1.9632,-1.9647,-1.9681,-1.9751,-1.9783,-1.9767,-1.9893,-1.9855,-1.986,-1.9864,-1.9904,-1.9917,-1.9927,-1.9784,-1.9783,-1.9783,0,0,-1.9486,-1.9502,-1.955,-1.9569,-1.9597,-1.9603,-1.9614,-1.964,-1.9649,-1.9708,-1.9696,-1.9735,-1.9806,-1.9831,-1.9853,-1.9943,-1.9933,-1.9956,-2.0001,-2.0042,-2.0052,-2.0061,-2.0094,-2.0105,-1.9964,-1.9964,-1.9964,0,-1.9525,-1.9581,-1.9577,-1.9621,-1.9643,-1.9625,-1.9676,-1.9696,-1.9737,-1.9754,-1.9734,-1.9823,-1.9845,-1.9921,-1.9942,-1.9961,-1.9976,-1.9952,-2.005,-2.0059,-2.0068,-2.0099,-2.0111,-1.9966,-1.9966,-1.9966,-1.9966,0,-1.9628,-1.9667,-1.9704,-1.9739,-1.9765,-1.9813,-1.9819,-1.9846,-1.9842,-1.9851,-1.9913,-1.9939,-1.9983,-2.0001,-1.9999,-2.0077,-2.0066,-2.0049,-2.0015,-2.0083,-2.0112,-2.0124,-1.997,-1.9969,-1.9968,-1.9968,0,0,-1.9733,-1.9765,-1.9779,-1.9795,-1.9824,-1.9857,-1.9905,-1.9945,-1.9968,-1.9998,-2.004,-2.0101,-2.0084,-2.0109,-2.011,-2.0146,-2.0217,-2.0125,-2.0126,-2.0141,-2.0305,-2.0317,-2.0331,-2.021,-2.0212,-2.0214,-2.0302,0,-1.9816,-1.9895,-1.9893,-1.9969,-2.0006,-1.9991,-2.0033,-2.0057,-2.0068,-2.0104,-2.0117,-2.0159,-2.0135,-2.0149,-2.0184,-2.02,-2.025,-2.0194,-2.0252,-2.0254,-2.0242,-2.0346,-2.036,-2.0441,-2.0314,-2.0316,-2.0317,0,-1.9923,-1.9951,-2.0029,-2.0053,-2.0069,-2.0106,-2.0143,-2.0177,-2.0206,-2.0211,-2.0238,-2.0233,-2.0286,-2.025,-2.0323,-2.0285,-2.0309,-2.0321,-2.0324,-2.033,-2.0289,-2.0355,-2.0468,-2.048,-2.0335,-2.0334,-2.0332,0,-1.9992,-2.0051,-2.0105,-2.0119,-2.0148,-2.0175,-2.0189,-2.0215,-2.024,-2.0273,-2.0289,-2.033,-2.0352,-2.0386,-2.0393,-2.0367,-2.0467,-2.0432,-2.0475,-2.0475,-2.0497,-2.0495,-2.0615,-2.0512,-2.0512,-2.0512,-2.0512,0,-2.0084,-2.0133,-2.0136,-2.0169,-2.0224,-2.0223,-2.0278,-2.0291,-2.0314,-2.0352,-2.0343,-2.038,-2.0387,-2.0427,-2.0434,-2.0494,-2.0505,-2.0512,-2.0513,-2.0513,-2.0512,-2.0528,-2.0523,-2.0515,-2.0514,-2.0514,-2.0513,0,-2.0171,-2.0175,-2.0233,-2.0254,-2.0261,-2.0301,-2.0321,-2.0355,-2.0363,-2.0412,-2.0423,-2.0439,-2.0484,-2.0495,-2.0551,-2.0556,-2.0627,-2.0623,-2.0616,-2.0615,-2.0657,-2.0653,-2.0792,-2.081,-2.0696,-2.0697,-2.0698,0,-2.0229,-2.0266,-2.029,-2.0313,-2.0327,-2.0365,-2.0388,-2.0389,-2.0415,-2.045,-2.0481,-2.0524,-2.0559,-2.0634,-2.0652,-2.0695,-2.0693,-2.0738,-2.0699,-2.0697,-2.0693,-2.0691,-2.0695,-2.0746,-2.0747,-2.0748,-2.0749,0,-2.0333,-2.0332,-2.0365,-2.0398,-2.0425,-2.0453,-2.0479,-2.0499,-2.0505,-2.0535,-2.0579,-2.0606,-2.0661,-2.0706,-2.0749,-2.0767,-2.076,-2.0761,-2.0773,-2.0772,-2.0766,-2.077,-2.0636,-2.0757,-2.0757,-2.0756,-2.0755,-2.0755,-2.0407,-2.0439,-2.046,-2.0497,-2.0516,-2.054,-2.0572,-2.0584,-2.062,-2.0662,-2.0662,-2.0711,-2.074,-2.0796,-2.0818,-2.0858,-2.0845,-2.0863,-2.0867,-2.0871,-2.0875,-2.076,-2.0867,-2.0866,-2.0866,-2.0866,-2.0866,0,-2.051,-2.0523,-2.0556,-2.0591,-2.0621,-2.0607,-2.0636,-2.0662,-2.0704,-2.073,-2.0764,-2.0816,-2.0859,-2.088,-2.0924,-2.0952,-2.095,-2.0964,-2.0962,-2.0967,-2.0885,-2.0869,-2.0965,-2.0965,-2.0965,-2.0965,-2.0965,-2.0965,-2.0567,-2.0619,-2.0622,-2.0684,-2.0698,-2.0742,-2.076,-2.0784,-2.0804,-2.0861,-2.0895,-2.0907,-2.0933,-2.0978,-2.1018,-2.1023,-2.104,-2.1056,-2.106,-2.0983,-2.0972,-2.0963,-2.0948,-2.1059,-2.1059,-2.1138,-2.1139,-2.1139]},{"header":{"parameterUnit":"m.s-1","parameterCategory":1,"la1":30.2991,"la2":30.254,"lo1":-89.0895,"lo2":-89.0444,"dy":0.0017,"dx":0.0017,"nx":28,"ny":28,"refTime":"2024-03-22T03:00:00:Z","depth":0,"parameterNumber":3,"parameterNumberName":"V-component_of_WINDS"},"data":[0,0,0,0,0,0,0,0,0,0,0,0,0,0,0,0,0,0,0,0,0,0,0,0,0,0,0,0,0,0,0,0,0,0,0,0,0,0,0,0,0,0,0,0,0,0,0,0,0,0,0,0,0,0,0,0,0,0,2.7487,2.7486,0,2.7362,2.736,2.7359,2.7287,2.7287,2.7286,2.7286,2.715,2.7147,2.7144,0,0,0,0,0,0,0,0,0,0,0,0,0,2.7659,2.7656,2.7487,2.7486,2.7484,2.7362,2.736,2.7358,2.7287,2.7287,2.7286,2.7286,2.7152,2.7147,2.7143,0,0,0,0,0,0,0,0,0,0,0,0,0,2.7564,2.7655,2.7488,2.7434,2.7428,2.7362,2.736,2.7358,2.7287,2.7287,2.7286,2.7286,2.7153,2.7148,2.7143,2.7118,0,0,2.7127,2.7125,0,0,0,0,0,0,0,0,2.7569,2.7557,2.7444,2.7438,2.7431,2.734,2.737,2.7277,2.7287,2.734,2.7286,2.7286,2.7213,2.7203,2.718,2.7112,2.7106,2.7127,2.7124,2.7122,2.712,0,0,0,0,0,0,0,2.7576,2.7562,2.7437,2.7442,2.7434,2.7414,2.74,2.7352,2.728,2.7336,2.733,2.7317,2.721,2.7185,2.7176,2.7104,2.7127,2.7122,2.7119,2.7117,2.7007,2.7007,0,0,0,0,0,0,2.7592,2.7568,2.7441,2.7434,2.7501,2.7411,2.7396,2.7369,2.728,2.7267,2.7317,2.7314,2.7194,2.7182,2.7171,2.7135,2.7122,2.7117,2.7114,2.7007,2.7007,2.7007,0,0,0,0,0,0,2.7596,2.7581,2.7446,2.7499,2.7481,2.7409,2.7379,2.7367,2.7342,2.7266,2.7252,2.7306,2.7193,2.7178,2.7132,2.7129,2.7114,2.711,2.7007,2.7007,2.7007,2.7064,0,0,0,0,0,0,2.7601,2.7583,2.7575,2.75,2.7478,2.7412,2.7379,2.7365,2.7335,2.7329,2.7252,2.7239,2.7192,2.714,2.7127,2.7122,2.7106,2.7007,2.7007,2.7007,2.7062,2.7066,2.707,0,0,0,0,0,2.7607,2.7595,2.7575,2.756,2.7467,2.7412,2.7399,2.7347,2.7335,2.7324,2.7275,2.7241,2.7132,2.7136,2.7121,2.7114,2.7007,2.7007,2.7007,2.706,2.7065,2.707,0,0,0,0,0,0,2.7669,2.7584,2.7561,2.7524,2.7476,2.74,2.7385,2.7354,2.7307,2.7303,2.7239,2.7222,2.7181,2.7143,2.7149,2.7085,2.7065,2.7063,2.7111,2.7115,2.7119,2.7128,2.7102,0,0,0,0,0,2.7679,2.7644,2.757,2.7545,2.7522,2.7458,2.7432,2.7397,2.7343,2.7322,2.7269,2.7217,2.717,2.7141,2.7094,2.7057,2.7037,2.7044,2.7048,2.7052,2.705,2.7025,2.7026,2.7008,2.7008,2.7008,0,0,2.7698,2.7647,2.7628,2.7556,2.7514,2.7477,2.7441,2.7403,2.7374,2.7315,2.7268,2.7228,2.7165,2.7122,2.7101,2.7089,2.7051,2.7052,2.7056,2.7051,2.7025,2.7027,2.7029,2.7008,2.7008,2.7008,0,0,2.7713,2.7672,2.7645,2.7605,2.7543,2.7501,2.7495,2.7423,2.7395,2.7347,2.7302,2.7265,2.7187,2.7143,2.7111,2.7109,2.7075,2.7095,2.7115,2.7091,2.7093,2.7094,2.7091,2.7091,2.7094,2.7094,2.7094,0,2.7743,2.7687,2.7635,2.76,2.7568,2.7515,2.7486,2.7449,2.7374,2.7352,2.7341,2.7241,2.7195,2.7141,2.7141,2.7117,2.7106,2.7103,2.7097,2.7098,2.7098,2.7094,2.7094,2.7097,2.7096,2.7096,2.7096,0,2.7727,2.7689,2.7674,2.7606,2.7573,2.7541,2.7481,2.7454,2.7421,2.7379,2.733,2.7273,2.7213,2.7197,2.7164,2.7138,2.7132,2.711,2.7089,2.7103,2.7099,2.7097,2.7101,2.71,2.7099,2.7098,0,0,2.7776,2.768,2.7675,2.7643,2.7571,2.7539,2.7504,2.7447,2.7424,2.7374,2.7341,2.7276,2.7255,2.7218,2.718,2.716,2.7159,2.7139,2.7136,2.7143,2.7124,2.7141,2.714,2.7137,2.7137,2.7136,2.7129,0,2.7779,2.7716,2.7668,2.7622,2.7584,2.7534,2.7502,2.7453,2.7413,2.7374,2.7328,2.7283,2.7259,2.7236,2.7214,2.7164,2.7154,2.7164,2.7103,2.7102,2.7119,2.7138,2.7156,2.7152,2.7127,2.7127,2.7127,0,2.7775,2.7729,2.768,2.7611,2.7593,2.7567,2.751,2.7474,2.7417,2.7388,2.7348,2.7308,2.7266,2.725,2.719,2.7197,2.7169,2.7141,2.7139,2.713,2.7114,2.7128,2.7149,2.7148,2.7124,2.7124,2.7125,0,2.7814,2.7739,2.77,2.7674,2.7593,2.7575,2.754,2.7483,2.7452,2.7402,2.738,2.7325,2.7295,2.7252,2.7197,2.7191,2.7142,2.7122,2.7115,2.7116,2.7105,2.7106,2.7121,2.709,2.709,2.709,2.709,0,2.7821,2.7793,2.7716,2.7692,2.7658,2.7601,2.7568,2.7528,2.7478,2.7443,2.7395,2.7362,2.7293,2.7252,2.7208,2.7164,2.715,2.7125,2.7113,2.7128,2.7131,2.7108,2.7106,2.709,2.709,2.709,2.709,0,2.7858,2.7806,2.776,2.7688,2.7669,2.7646,2.7583,2.7556,2.7514,2.747,2.7456,2.7389,2.7337,2.7279,2.7208,2.7179,2.7136,2.7121,2.7156,2.715,2.7145,2.7146,2.7143,2.7139,2.7114,2.7114,2.7115,0,2.7866,2.7843,2.7769,2.7743,2.771,2.7669,2.7638,2.7581,2.7549,2.7482,2.7463,2.7408,2.7362,2.7281,2.7224,2.7169,2.715,2.7153,2.7141,2.7157,2.7148,2.715,2.7146,2.7156,2.7157,2.7157,2.7158,0,2.7884,2.786,2.7817,2.7766,2.773,2.7686,2.764,2.7621,2.7554,2.7521,2.7469,2.7433,2.7361,2.7307,2.7244,2.7205,2.7169,2.7162,2.7157,2.7171,2.7192,2.7179,2.7164,2.7162,2.7161,2.7161,2.7161,2.7161,2.7905,2.7882,2.7826,2.778,2.774,2.7698,2.7669,2.7623,2.758,2.7519,2.7487,2.7435,2.7376,2.729,2.7252,2.7208,2.7197,2.719,2.7188,2.7187,2.719,2.7201,2.7197,2.7197,2.7196,2.7196,2.7196,0,2.7919,2.7881,2.784,2.7778,2.7741,2.7714,2.7661,2.7631,2.7587,2.7536,2.7492,2.7431,2.7378,2.7317,2.726,2.7237,2.7218,2.7223,2.7223,2.7214,2.7205,2.7214,2.7239,2.7239,2.7239,2.7239,2.7239,2.7239,2.7922,2.7882,2.785,2.7788,2.7749,2.77,2.7672,2.7632,2.7591,2.7527,2.7483,2.7445,2.7389,2.7327,2.7276,2.726,2.724,2.7249,2.7227,2.7219,2.7215,2.7212,2.722,2.7246,2.7246,2.724,2.724,2.724]}]]